User: anonymous   Login
Location: Trondheim
(63.4170°N, 10.4170°E)
Time: 07:55:10
(UTC+02:00)
Language:

Iridium 82 - Orbit

View from above orbital plane
View from above orbital plane
View from above satellite
View from above satellite

Ground track
Ground track

The orbit data is extracted from the following two-line orbital elements,

1 25467U 98051A   14295.43785469  .00000840  00000-0  29293-3 0  1097
2 25467 086.3972 066.9999 0002173 118.3644 241.7771 14.34220606847768
Epoch (UTC): 22 October 2014 10:30:30
Eccentricity: 0.0002173
inclination: 86.3972°
perigee height: 776 km
apogee height: 779 km
right ascension of ascending node: 66.9999°
argument of perigee: 118.3644°
revolutions per day: 14.34220606
mean anomaly at epoch: 241.7771°
orbit number at epoch: 84776

The dashed part of the orbit path shows where the satellite is in the earth's shadow,  

DLR